TimeMDT,TemperatureF,Dew PointF,Humidity,Sea Level PressureIn,VisibilityMPH,Wind Direction,Wind SpeedMPH,Gust SpeedMPH,PrecipitationIn,Events,Conditions,WindDirDegrees,DateUTC
12:15 AM,32.0,32.0,100,30.07,0.2,ESE,11.5,-,N/A,Fog,Fog,110,2012-11-01 06:15:00
12:35 AM,32.0,32.0,100,30.07,0.2,ESE,15.0,-,N/A,Fog,Fog,110,2012-11-01 06:35:00
12:55 AM,32.0,32.0,100,30.07,0.2,ESE,12.7,-,N/A,Fog,Fog,110,2012-11-01 06:55:00
1:15 AM,32.0,32.0,100,30.06,0.2,ESE,12.7,-,N/A,Fog,Fog,120,2012-11-01 07:15:00
1:35 AM,32.0,32.0,100,30.05,0.2,ESE,15.0,-,N/A,Fog,Fog,120,2012-11-01 07:35:00
1:55 AM,32.0,32.0,100,30.05,0.2,SE,12.7,19.6,N/A,Fog,Fog,130,2012-11-01 07:55:00
2:15 AM,32.0,32.0,100,30.03,0.2,SE,12.7,18.4,N/A,Fog,Fog,130,2012-11-01 08:15:00
2:35 AM,32.0,32.0,100,30.04,0.2,SE,16.1,21.9,N/A,,Overcast,130,2012-11-01 08:35:00
2:55 AM,32.0,32.0,100,30.04,0.2,SE,17.3,21.9,N/A,Fog,Fog,130,2012-11-01 08:55:00
3:15 AM,32.0,32.0,100,30.02,0.5,SE,15.0,24.2,N/A,Fog,Fog,130,2012-11-01 09:15:00
3:35 AM,32.0,32.0,100,30.02,0.5,ESE,13.8,21.9,N/A,Fog,Fog,120,2012-11-01 09:35:00
3:55 AM,32.0,32.0,100,30.01,0.2,SE,16.1,20.7,N/A,,Overcast,130,2012-11-01 09:55:00
4:15 AM,32.0,32.0,100,30.00,0.2,SE,16.1,-,N/A,Fog,Fog,130,2012-11-01 10:15:00
4:35 AM,32.0,32.0,100,30.00,0.2,SE,17.3,25.3,N/A,,Overcast,130,2012-11-01 10:35:00
4:55 AM,32.0,32.0,100,29.99,0.5,SE,18.4,24.2,N/A,Fog,Fog,130,2012-11-01 10:55:00
5:15 AM,32.0,32.0,100,29.99,0.2,SE,17.3,24.2,N/A,,Overcast,130,2012-11-01 11:15:00
5:35 AM,32.0,32.0,100,29.99,0.5,SE,21.9,26.5,N/A,Fog,Fog,130,2012-11-01 11:35:00
5:55 AM,32.0,32.0,100,29.99,0.2,SE,16.1,19.6,N/A,Fog,Fog,130,2012-11-01 11:55:00
6:15 AM,32.0,32.0,100,29.98,0.2,SE,20.7,26.5,N/A,,Overcast,130,2012-11-01 12:15:00
6:35 AM,32.0,32.0,100,29.98,0.5,SE,16.1,26.5,N/A,,Overcast,130,2012-11-01 12:35:00
6:55 AM,32.0,32.0,100,29.97,0.5,SE,17.3,25.3,N/A,,Overcast,130,2012-11-01 12:55:00
7:15 AM,32.0,32.0,100,29.96,0.5,SE,17.3,25.3,N/A,Fog,Fog,130,2012-11-01 13:15:00
7:35 AM,32.0,32.0,100,29.96,0.8,SE,23.0,27.6,N/A,,Overcast,130,2012-11-01 13:35:00
7:55 AM,32.0,32.0,100,29.95,0.2,SE,24.2,31.1,N/A,,Overcast,130,2012-11-01 13:55:00
8:15 AM,32.0,32.0,100,29.94,0.2,SE,21.9,32.2,N/A,,Overcast,130,2012-11-01 14:15:00
8:35 AM,32.0,32.0,100,29.94,0.2,SE,20.7,31.1,N/A,,Overcast,130,2012-11-01 14:35:00
8:55 AM,32.0,32.0,100,29.94,0.2,SE,21.9,31.1,N/A,,Overcast,130,2012-11-01 14:55:00
9:15 AM,32.0,32.0,100,29.93,0.2,SE,26.5,31.1,N/A,,Overcast,140,2012-11-01 15:15:00
9:35 AM,32.0,32.0,100,29.94,0.5,SE,20.7,25.3,N/A,,Overcast,130,2012-11-01 15:35:00
9:55 AM,32.0,32.0,100,29.94,0.2,SE,18.4,28.8,N/A,,Overcast,130,2012-11-01 15:55:00
10:15 AM,32.0,32.0,100,29.94,0.2,SE,19.6,26.5,N/A,,Overcast,130,2012-11-01 16:15:00
10:35 AM,32.0,32.0,100,29.94,0.5,SE,18.4,27.6,N/A,Fog,Fog,140,2012-11-01 16:35:00
10:55 AM,32.0,32.0,100,29.94,0.8,SE,20.7,31.1,N/A,,Overcast,130,2012-11-01 16:55:00
11:15 AM,33.8,33.8,100,29.92,1.2,SE,25.3,29.9,N/A,,Overcast,130,2012-11-01 17:15:00
11:35 AM,33.8,33.8,100,29.92,1.5,SE,23.0,33.4,N/A,,Overcast,140,2012-11-01 17:35:00
12:15 PM,35.6,35.6,100,29.91,5.0,SE,21.9,28.8,N/A,,Overcast,130,2012-11-01 18:15:00
12:35 PM,35.6,35.6,100,29.90,3.0,SE,20.7,29.9,N/A,,Overcast,130,2012-11-01 18:35:00
12:55 PM,35.6,35.6,100,29.88,5.0,SE,21.9,27.6,N/A,,Overcast,140,2012-11-01 18:55:00
1:15 PM,35.6,35.6,100,29.88,10.0,SE,18.4,33.4,N/A,,Overcast,140,2012-11-01 19:15:00
1:35 PM,37.4,37.4,100,29.87,7.0,SE,26.5,34.5,N/A,,Overcast,140,2012-11-01 19:35:00
1:55 PM,37.4,37.4,100,29.87,9.0,SE,19.6,27.6,N/A,,Overcast,140,2012-11-01 19:55:00
2:15 PM,37.4,37.4,100,29.87,10.0,SE,23.0,29.9,N/A,,Overcast,130,2012-11-01 20:15:00
3:15 PM,37.4,37.4,100,29.86,5.0,SE,24.2,27.6,N/A,,Overcast,140,2012-11-01 21:15:00
3:55 PM,37.4,37.4,100,29.86,4.0,SE,19.6,26.5,N/A,,Overcast,130,2012-11-01 21:55:00
4:15 PM,35.6,35.6,100,29.87,2.0,SE,18.4,24.2,N/A,,Overcast,130,2012-11-01 22:15:00
4:35 PM,35.6,35.6,100,29.87,2.0,SE,18.4,26.5,N/A,,Overcast,130,2012-11-01 22:35:00
4:55 PM,35.6,35.6,100,29.87,1.5,ESE,17.3,21.9,N/A,,Overcast,120,2012-11-01 22:55:00
5:15 PM,35.6,35.6,100,29.86,1.8,SE,17.3,26.5,N/A,,Overcast,130,2012-11-01 23:15:00
5:35 PM,35.6,35.6,100,29.87,1.5,SE,17.3,25.3,N/A,,Overcast,130,2012-11-01 23:35:00
5:55 PM,35.6,35.6,100,29.88,2.0,SE,15.0,19.6,N/A,,Overcast,130,2012-11-01 23:55:00
6:15 PM,35.6,35.6,100,29.88,3.0,SE,17.3,24.2,N/A,,Overcast,140,2012-11-02 00:15:00
6:35 PM,35.6,35.6,100,29.88,3.0,SE,16.1,23.0,N/A,,Overcast,130,2012-11-02 00:35:00
6:55 PM,35.6,35.6,100,29.88,2.0,SE,16.1,23.0,N/A,,Overcast,130,2012-11-02 00:55:00
7:15 PM,35.6,35.6,100,29.88,3.0,SE,16.1,25.3,N/A,,Overcast,130,2012-11-02 01:15:00
7:35 PM,35.6,35.6,100,29.89,4.0,SE,17.3,26.5,N/A,,Overcast,130,2012-11-02 01:35:00
7:55 PM,35.6,35.6,100,29.88,5.0,SE,16.1,25.3,N/A,,Overcast,130,2012-11-02 01:55:00
8:15 PM,35.6,35.6,100,29.89,10.0,SE,13.8,23.0,N/A,,Overcast,130,2012-11-02 02:15:00
8:35 PM,33.8,33.8,100,29.89,10.0,SE,13.8,23.0,N/A,,Overcast,130,2012-11-02 02:35:00
8:55 PM,33.8,32.0,93,29.89,10.0,ESE,15.0,21.9,N/A,,Overcast,120,2012-11-02 02:55:00
9:15 PM,33.8,32.0,93,29.89,10.0,ESE,17.3,-,N/A,,Overcast,120,2012-11-02 03:15:00
9:35 PM,32.0,32.0,100,29.89,10.0,SE,16.1,21.9,N/A,,Overcast,130,2012-11-02 03:35:00
9:55 PM,32.0,30.2,93,29.89,10.0,SE,16.1,21.9,N/A,,Overcast,130,2012-11-02 03:55:00
10:15 PM,32.0,28.4,87,29.89,10.0,SE,15.0,21.9,N/A,,Overcast,130,2012-11-02 04:15:00
10:35 PM,32.0,28.4,87,29.90,10.0,SE,12.7,21.9,N/A,,Overcast,130,2012-11-02 04:35:00
10:55 PM,32.0,26.6,80,29.90,10.0,SE,15.0,21.9,N/A,,Overcast,130,2012-11-02 04:55:00
11:15 PM,32.0,26.6,80,29.91,10.0,SE,13.8,-,N/A,,Overcast,130,2012-11-02 05:15:00
11:35 PM,32.0,26.6,80,29.91,10.0,SE,11.5,-,N/A,,Overcast,130,2012-11-02 05:35:00
11:55 PM,32.0,26.6,80,29.91,10.0,SE,12.7,-,N/A,,Overcast,130,2012-11-02 05:55:00